Year,Month,Day,Hour,Minute,Value (Times are PST for temperature in C)
2019,05,26,00,00,9.10
2019,05,26,00,01,9.10
2019,05,26,00,02,9.10
2019,05,26,00,03,9.10
2019,05,26,00,04,9.10
2019,05,26,00,05,9.10
2019,05,26,00,06,9.10
2019,05,26,00,07,9.10
2019,05,26,00,08,9.00
2019,05,26,00,09,9.00
2019,05,26,00,10,9.00
2019,05,26,00,11,9.00
2019,05,26,00,12,9.00
2019,05,26,00,13,9.00
2019,05,26,00,14,9.00
2019,05,26,00,15,9.00
2019,05,26,00,16,8.90
2019,05,26,00,17,8.90
2019,05,26,00,18,8.90
2019,05,26,00,19,8.90
2019,05,26,00,20,8.90
2019,05,26,00,21,8.90
2019,05,26,00,22,8.90
2019,05,26,00,23,8.90
2019,05,26,00,24,8.90
2019,05,26,00,25,8.80
2019,05,26,00,26,8.80
2019,05,26,00,27,8.80
2019,05,26,00,28,8.80
2019,05,26,00,29,8.80
2019,05,26,00,30,8.80
2019,05,26,00,31,8.80
2019,05,26,00,32,8.70
2019,05,26,00,33,8.70
2019,05,26,00,34,8.70
2019,05,26,00,35,8.70
2019,05,26,00,36,8.80
2019,05,26,00,37,8.80
2019,05,26,00,38,8.80
2019,05,26,00,39,8.80
2019,05,26,00,40,8.80
2019,05,26,00,41,8.80
2019,05,26,00,42,8.70
2019,05,26,00,43,8.70
2019,05,26,00,44,8.70
2019,05,26,00,45,8.70
2019,05,26,00,46,8.70
2019,05,26,00,47,8.70
2019,05,26,00,48,8.60
2019,05,26,00,49,8.60
2019,05,26,00,50,8.60
2019,05,26,00,51,8.60
2019,05,26,00,52,8.60
2019,05,26,00,53,8.60
2019,05,26,00,54,8.60
2019,05,26,00,55,8.60
2019,05,26,00,56,8.50
2019,05,26,00,57,8.50
2019,05,26,00,58,8.40
2019,05,26,00,59,8.40
2019,05,26,01,00,8.40
2019,05,26,01,01,8.40
2019,05,26,01,02,8.30
2019,05,26,01,03,8.30
2019,05,26,01,04,8.30
2019,05,26,01,05,8.30
2019,05,26,01,06,8.30
2019,05,26,01,07,8.30
2019,05,26,01,08,8.30
2019,05,26,01,09,8.30
2019,05,26,01,10,8.30
2019,05,26,01,11,8.30
2019,05,26,01,12,8.30
2019,05,26,01,13,8.20
2019,05,26,01,14,8.20
2019,05,26,01,15,8.20
2019,05,26,01,16,8.20
2019,05,26,01,17,8.10
2019,05,26,01,18,8.10
2019,05,26,01,19,8.10
2019,05,26,01,20,8.10
2019,05,26,01,21,8.10
2019,05,26,01,22,8.10
2019,05,26,01,23,8.10
2019,05,26,01,24,8.10
2019,05,26,01,25,8.10
2019,05,26,01,26,8.10
2019,05,26,01,27,8.10
2019,05,26,01,28,8.10
2019,05,26,01,29,8.00
2019,05,26,01,30,8.00
2019,05,26,01,31,8.00
2019,05,26,01,32,8.00
2019,05,26,01,33,8.00
2019,05,26,01,34,7.90
2019,05,26,01,35,7.90
2019,05,26,01,36,7.90
2019,05,26,01,37,7.90
2019,05,26,01,38,7.90
2019,05,26,01,39,7.90
2019,05,26,01,40,7.90
2019,05,26,01,41,7.90
2019,05,26,01,42,7.80
2019,05,26,01,43,7.80
2019,05,26,01,44,7.80
2019,05,26,01,45,7.80
2019,05,26,01,46,7.80
2019,05,26,01,47,7.80
2019,05,26,01,48,7.70
2019,05,26,01,49,7.70
2019,05,26,01,50,7.70
2019,05,26,01,51,7.70
2019,05,26,01,52,7.70
2019,05,26,01,53,7.70
2019,05,26,01,54,7.70
2019,05,26,01,55,7.70
2019,05,26,01,56,7.70
2019,05,26,01,57,7.70
2019,05,26,01,58,7.70
2019,05,26,01,59,7.70
2019,05,26,02,00,7.70
2019,05,26,02,01,7.70
2019,05,26,02,02,7.70
2019,05,26,02,03,7.70
2019,05,26,02,04,7.70
2019,05,26,02,05,7.70
2019,05,26,02,06,7.80
2019,05,26,02,07,7.80
2019,05,26,02,08,7.80
2019,05,26,02,09,7.70
2019,05,26,02,10,7.70
2019,05,26,02,11,7.70
2019,05,26,02,12,7.70
2019,05,26,02,13,7.70
2019,05,26,02,14,7.70
2019,05,26,02,15,7.70
2019,05,26,02,16,7.70
2019,05,26,02,17,7.70
2019,05,26,02,18,7.70
2019,05,26,02,19,7.70
2019,05,26,02,20,7.60
2019,05,26,02,21,7.60
2019,05,26,02,22,7.60
2019,05,26,02,23,7.60
2019,05,26,02,24,7.60
2019,05,26,02,25,7.60
2019,05,26,02,26,7.60
2019,05,26,02,27,7.60
2019,05,26,02,28,7.60
2019,05,26,02,29,7.60
2019,05,26,02,30,7.60
2019,05,26,02,31,7.60
2019,05,26,02,32,7.50
2019,05,26,02,33,7.50
2019,05,26,02,34,7.50
2019,05,26,02,35,7.50
2019,05,26,02,36,7.50
2019,05,26,02,37,7.50
2019,05,26,02,38,7.50
2019,05,26,02,39,7.50
2019,05,26,02,40,7.50
2019,05,26,02,41,7.50
2019,05,26,02,42,7.40
2019,05,26,02,43,7.40
2019,05,26,02,44,7.40
2019,05,26,02,45,7.40
2019,05,26,02,46,7.40
2019,05,26,02,47,7.40
2019,05,26,02,48,7.30
2019,05,26,02,49,7.30
2019,05,26,02,50,7.30
2019,05,26,02,51,7.40
2019,05,26,02,52,7.40
2019,05,26,02,53,7.40
2019,05,26,02,54,7.40
2019,05,26,02,55,7.40
2019,05,26,02,56,7.40
2019,05,26,02,57,7.40
2019,05,26,02,58,7.40
2019,05,26,02,59,7.40
2019,05,26,03,00,7.40
2019,05,26,03,01,7.40
2019,05,26,03,02,7.30
2019,05,26,03,03,7.30
2019,05,26,03,04,7.30
2019,05,26,03,05,7.30
2019,05,26,03,06,7.30
2019,05,26,03,07,7.30
2019,05,26,03,08,7.20
2019,05,26,03,09,7.20
2019,05,26,03,10,7.20
2019,05,26,03,11,7.20
2019,05,26,03,12,7.20
2019,05,26,03,13,7.20
2019,05,26,03,14,7.20
2019,05,26,03,15,7.20
2019,05,26,03,16,7.20
2019,05,26,03,17,7.20
2019,05,26,03,18,7.20
2019,05,26,03,19,7.20
2019,05,26,03,20,7.20
2019,05,26,03,21,7.20
2019,05,26,03,22,7.20
2019,05,26,03,23,7.20
2019,05,26,03,24,7.20
2019,05,26,03,25,7.20
2019,05,26,03,26,7.20
2019,05,26,03,27,7.20
2019,05,26,03,28,7.20
2019,05,26,03,29,7.20
2019,05,26,03,30,7.20
2019,05,26,03,31,7.20
2019,05,26,03,32,7.10
2019,05,26,03,33,7.10
2019,05,26,03,34,7.10
2019,05,26,03,35,7.10
2019,05,26,03,36,7.10
2019,05,26,03,37,7.10
2019,05,26,03,38,7.10
2019,05,26,03,39,7.10
2019,05,26,03,40,7.00
2019,05,26,03,41,7.00
2019,05,26,03,42,7.00
2019,05,26,03,43,7.00
2019,05,26,03,44,7.00
2019,05,26,03,45,6.90
2019,05,26,03,46,6.90
2019,05,26,03,47,6.90
2019,05,26,03,48,6.90
2019,05,26,03,49,6.90
2019,05,26,03,50,6.90
2019,05,26,03,51,6.90
2019,05,26,03,52,6.90
2019,05,26,03,53,6.90
2019,05,26,03,54,6.90
2019,05,26,03,55,6.80
2019,05,26,03,56,6.80
2019,05,26,03,57,6.80
2019,05,26,03,58,6.80
2019,05,26,03,59,6.80
2019,05,26,04,00,6.80
2019,05,26,04,01,6.80
2019,05,26,04,02,6.80
2019,05,26,04,03,6.80
2019,05,26,04,04,6.80
2019,05,26,04,05,6.80
2019,05,26,04,06,6.80
2019,05,26,04,07,6.80
2019,05,26,04,08,6.80
2019,05,26,04,09,6.80
2019,05,26,04,10,6.80
2019,05,26,04,11,6.90
2019,05,26,04,12,6.80
2019,05,26,04,13,6.80
2019,05,26,04,14,6.80
2019,05,26,04,15,6.80
2019,05,26,04,16,6.80
2019,05,26,04,17,6.80
2019,05,26,04,18,6.80
2019,05,26,04,19,6.70
2019,05,26,04,20,6.70
2019,05,26,04,21,6.70
2019,05,26,04,22,6.70
2019,05,26,04,23,6.70
2019,05,26,04,24,6.70
2019,05,26,04,25,6.70
2019,05,26,04,26,6.70
2019,05,26,04,27,6.70
2019,05,26,04,28,6.70
2019,05,26,04,29,6.70
2019,05,26,04,30,6.60
2019,05,26,04,31,6.60
2019,05,26,04,32,6.60
2019,05,26,04,33,6.60
2019,05,26,04,34,6.60
2019,05,26,04,35,6.60
2019,05,26,04,36,6.50
2019,05,26,04,37,6.50
2019,05,26,04,38,6.50
2019,05,26,04,39,6.50
2019,05,26,04,40,6.50
2019,05,26,04,41,6.40
2019,05,26,04,42,6.40
2019,05,26,04,43,6.40
2019,05,26,04,44,6.40
2019,05,26,04,45,6.40
2019,05,26,04,46,6.40
2019,05,26,04,47,6.40
2019,05,26,04,48,6.40
2019,05,26,04,49,6.40
2019,05,26,04,50,6.40
2019,05,26,04,51,6.40
2019,05,26,04,52,6.40
2019,05,26,04,53,6.40
2019,05,26,04,54,6.40
2019,05,26,04,55,6.40
2019,05,26,04,56,6.40
2019,05,26,04,57,6.40
2019,05,26,04,58,6.40
2019,05,26,04,59,6.40
2019,05,26,05,00,6.40
2019,05,26,05,01,6.40
2019,05,26,05,02,6.40
2019,05,26,05,03,6.40
2019,05,26,05,04,6.40
2019,05,26,05,05,6.40
2019,05,26,05,06,6.40
2019,05,26,05,07,6.40
2019,05,26,05,08,6.40
2019,05,26,05,09,6.40
2019,05,26,05,10,6.50
2019,05,26,05,11,6.50
2019,05,26,05,12,6.50
2019,05,26,05,13,6.60
2019,05,26,05,14,6.60
2019,05,26,05,15,6.60
2019,05,26,05,16,6.60
2019,05,26,05,17,6.60
2019,05,26,05,18,6.60
2019,05,26,05,19,6.60
2019,05,26,05,20,6.60
2019,05,26,05,21,6.60
2019,05,26,05,22,6.60
2019,05,26,05,23,6.60
2019,05,26,05,24,6.50
2019,05,26,05,25,6.50
2019,05,26,05,26,6.50
2019,05,26,05,27,6.40
2019,05,26,05,28,6.40
2019,05,26,05,29,6.40
2019,05,26,05,30,6.40
2019,05,26,05,31,6.40
2019,05,26,05,32,6.40
2019,05,26,05,33,6.50
2019,05,26,05,34,6.50
2019,05,26,05,35,6.50
2019,05,26,05,36,6.50
2019,05,26,05,37,6.50
2019,05,26,05,38,6.50
2019,05,26,05,39,6.50
2019,05,26,05,40,6.50
2019,05,26,05,41,6.50
2019,05,26,05,42,6.50
2019,05,26,05,43,6.50
2019,05,26,05,44,6.50
2019,05,26,05,45,6.40
2019,05,26,05,46,6.40
2019,05,26,05,47,6.40
2019,05,26,05,48,6.40
2019,05,26,05,49,6.30
2019,05,26,05,50,6.30
2019,05,26,05,51,6.30
2019,05,26,05,52,6.30
2019,05,26,05,53,6.30
2019,05,26,05,54,6.40
2019,05,26,05,55,6.40
2019,05,26,05,56,6.40
2019,05,26,05,57,6.50
2019,05,26,05,58,6.50
2019,05,26,05,59,6.50
2019,05,26,06,00,6.50
2019,05,26,06,01,6.50
2019,05,26,06,02,6.60
2019,05,26,06,03,6.60
2019,05,26,06,04,6.60
2019,05,26,06,05,6.60
2019,05,26,06,06,6.60
2019,05,26,06,07,6.60
2019,05,26,06,08,6.60
2019,05,26,06,09,6.60
2019,05,26,06,10,6.70
2019,05,26,06,11,6.70
2019,05,26,06,12,6.70
2019,05,26,06,13,6.70
2019,05,26,06,14,6.70
2019,05,26,06,15,6.70
2019,05,26,06,16,6.80
2019,05,26,06,17,6.80
2019,05,26,06,18,6.80
2019,05,26,06,19,6.90
2019,05,26,06,20,6.90
2019,05,26,06,21,7.00
2019,05,26,06,22,7.00
2019,05,26,06,23,7.10
2019,05,26,06,24,7.10
2019,05,26,06,25,7.10
2019,05,26,06,26,7.20
2019,05,26,06,27,7.20
2019,05,26,06,28,7.20
2019,05,26,06,29,7.20
2019,05,26,06,30,7.30
2019,05,26,06,31,7.30
2019,05,26,06,32,7.30
2019,05,26,06,33,7.30
2019,05,26,06,34,7.40
2019,05,26,06,35,7.40
2019,05,26,06,36,7.40
2019,05,26,06,37,7.50
2019,05,26,06,38,7.60
2019,05,26,06,39,7.60
2019,05,26,06,40,7.60
2019,05,26,06,41,7.60
2019,05,26,06,42,7.60
2019,05,26,06,43,7.70
2019,05,26,06,44,7.70
2019,05,26,06,45,7.70
2019,05,26,06,46,7.70
2019,05,26,06,47,7.70
2019,05,26,06,48,7.80
2019,05,26,06,49,7.80
2019,05,26,06,50,7.80
2019,05,26,06,51,7.90
2019,05,26,06,52,8.00
2019,05,26,06,53,8.00
2019,05,26,06,54,8.10
2019,05,26,06,55,8.20
2019,05,26,06,56,8.20
2019,05,26,06,57,8.30
2019,05,26,06,58,8.30
2019,05,26,06,59,8.40
2019,05,26,07,00,8.40
2019,05,26,07,01,8.40
2019,05,26,07,02,8.40
2019,05,26,07,03,8.40
2019,05,26,07,04,8.40
2019,05,26,07,05,8.40
2019,05,26,07,06,8.40
2019,05,26,07,07,8.40
2019,05,26,07,08,8.50
2019,05,26,07,09,8.50
2019,05,26,07,10,8.60
2019,05,26,07,11,8.60
2019,05,26,07,12,8.70
2019,05,26,07,13,8.80
2019,05,26,07,14,8.80
2019,05,26,07,15,8.80
2019,05,26,07,16,8.80
2019,05,26,07,17,8.90
2019,05,26,07,18,8.90
2019,05,26,07,19,9.00
2019,05,26,07,20,9.00
2019,05,26,07,21,9.10
2019,05,26,07,22,9.10
2019,05,26,07,23,9.10
2019,05,26,07,24,9.20
2019,05,26,07,25,9.20
2019,05,26,07,26,9.30
2019,05,26,07,27,9.30
2019,05,26,07,28,9.40
2019,05,26,07,29,9.40
2019,05,26,07,30,9.50
2019,05,26,07,31,9.50
2019,05,26,07,32,9.50
2019,05,26,07,33,9.50
2019,05,26,07,34,9.60
2019,05,26,07,35,9.70
2019,05,26,07,36,9.70
2019,05,26,07,37,9.80
2019,05,26,07,38,9.90
2019,05,26,07,39,10.00
2019,05,26,07,40,10.10
2019,05,26,07,41,10.20
2019,05,26,07,42,10.30
2019,05,26,07,43,10.40
2019,05,26,07,44,10.50
2019,05,26,07,45,10.60
2019,05,26,07,46,10.70
2019,05,26,07,47,10.80
2019,05,26,07,48,10.80
2019,05,26,07,49,10.90
2019,05,26,07,50,11.00
2019,05,26,07,51,11.10
2019,05,26,07,52,11.20
2019,05,26,07,53,11.20
2019,05,26,07,54,11.30
2019,05,26,07,55,11.40
2019,05,26,07,56,11.50
2019,05,26,07,57,11.60
2019,05,26,07,58,11.70
2019,05,26,07,59,11.70
2019,05,26,08,00,11.80
2019,05,26,08,01,11.90
2019,05,26,08,02,12.00
2019,05,26,08,03,12.10
2019,05,26,08,04,12.20
2019,05,26,08,05,12.30
2019,05,26,08,06,12.40
2019,05,26,08,07,12.50
2019,05,26,08,08,12.70
2019,05,26,08,09,12.80
2019,05,26,08,10,12.90
2019,05,26,08,11,13.00
2019,05,26,08,12,13.10
2019,05,26,08,13,13.20
2019,05,26,08,14,13.30
2019,05,26,08,15,13.40
2019,05,26,08,16,13.40
2019,05,26,08,17,13.50
2019,05,26,08,18,13.60
2019,05,26,08,19,13.60
2019,05,26,08,20,13.70
2019,05,26,08,21,13.80
2019,05,26,08,22,13.80
2019,05,26,08,23,13.90
2019,05,26,08,24,13.90
2019,05,26,08,25,13.90
2019,05,26,08,26,13.90
2019,05,26,08,27,13.90
2019,05,26,08,28,13.80
2019,05,26,08,29,13.80
2019,05,26,08,30,13.70
2019,05,26,08,31,13.60
2019,05,26,08,32,13.50
2019,05,26,08,33,13.50
2019,05,26,08,34,13.40
2019,05,26,08,35,13.30
2019,05,26,08,36,13.30
2019,05,26,08,37,13.20
2019,05,26,08,38,13.20
2019,05,26,08,39,13.20
2019,05,26,08,40,13.20
2019,05,26,08,41,13.20
2019,05,26,08,42,13.20
2019,05,26,08,43,13.20
2019,05,26,08,44,13.20
2019,05,26,08,45,13.30
2019,05,26,08,46,13.30
2019,05,26,08,47,13.30
2019,05,26,08,48,13.40
2019,05,26,08,49,13.40
2019,05,26,08,50,13.40
2019,05,26,08,51,13.40
2019,05,26,08,52,13.40
2019,05,26,08,53,13.50
2019,05,26,08,54,13.50
2019,05,26,08,55,13.50
2019,05,26,08,56,13.50
2019,05,26,08,57,13.60
2019,05,26,08,58,13.70
2019,05,26,08,59,13.70
2019,05,26,09,00,13.70
2019,05,26,09,01,13.70
2019,05,26,09,02,13.70
2019,05,26,09,03,13.70
2019,05,26,09,04,13.60
2019,05,26,09,05,13.50
2019,05,26,09,06,13.50
2019,05,26,09,07,13.40
2019,05,26,09,08,13.40
2019,05,26,09,09,13.40
2019,05,26,09,10,13.50
2019,05,26,09,11,13.50
2019,05,26,09,12,13.60
2019,05,26,09,13,13.60
2019,05,26,09,14,13.70
2019,05,26,09,15,13.70
2019,05,26,09,16,13.80
2019,05,26,09,17,13.90
2019,05,26,09,18,13.90
2019,05,26,09,19,14.00
2019,05,26,09,20,14.10
2019,05,26,09,21,14.20
2019,05,26,09,22,14.20
2019,05,26,09,23,14.20
2019,05,26,09,24,14.20
2019,05,26,09,25,14.20
2019,05,26,09,26,14.30
2019,05,26,09,27,14.30
2019,05,26,09,28,14.40
2019,05,26,09,29,14.50
2019,05,26,09,30,14.60
2019,05,26,09,31,14.70
2019,05,26,09,32,14.80
2019,05,26,09,33,14.80
2019,05,26,09,34,14.90
2019,05,26,09,35,14.90
2019,05,26,09,36,14.90
2019,05,26,09,37,15.00
2019,05,26,09,38,15.00
2019,05,26,09,39,15.00
2019,05,26,09,40,15.00
2019,05,26,09,41,15.00
2019,05,26,09,42,15.10
2019,05,26,09,43,15.20
2019,05,26,09,44,15.20
2019,05,26,09,45,15.20
2019,05,26,09,46,15.20
2019,05,26,09,47,15.30
2019,05,26,09,48,15.30
2019,05,26,09,49,15.40
2019,05,26,09,50,15.40
2019,05,26,09,51,15.40
2019,05,26,09,52,15.50
2019,05,26,09,53,15.50
2019,05,26,09,54,15.50
2019,05,26,09,55,15.50
2019,05,26,09,56,15.50
2019,05,26,09,57,15.50
2019,05,26,09,58,15.50
2019,05,26,09,59,15.50
2019,05,26,10,00,15.50
2019,05,26,10,01,15.50
2019,05,26,10,02,15.50
2019,05,26,10,03,15.50
2019,05,26,10,04,15.50
2019,05,26,10,05,15.60
2019,05,26,10,06,15.60
2019,05,26,10,07,15.60
2019,05,26,10,08,15.60
2019,05,26,10,09,15.60
2019,05,26,10,10,15.70
2019,05,26,10,11,15.70
2019,05,26,10,12,15.70
2019,05,26,10,13,15.70
2019,05,26,10,14,15.70
2019,05,26,10,15,15.60
2019,05,26,10,16,15.60
2019,05,26,10,17,15.60
2019,05,26,10,18,15.60
2019,05,26,10,19,15.60
2019,05,26,10,20,15.50
2019,05,26,10,21,15.50
2019,05,26,10,22,15.50
2019,05,26,10,23,15.40
2019,05,26,10,24,15.40
2019,05,26,10,25,15.40
2019,05,26,10,26,15.50
2019,05,26,10,27,15.50
2019,05,26,10,28,15.60
2019,05,26,10,29,15.60
2019,05,26,10,30,15.70
2019,05,26,10,31,15.70
2019,05,26,10,32,15.70
2019,05,26,10,33,15.80
2019,05,26,10,34,15.90
2019,05,26,10,35,16.00
2019,05,26,10,36,16.00
2019,05,26,10,37,16.10
2019,05,26,10,38,16.10
2019,05,26,10,39,16.20
2019,05,26,10,40,16.20
2019,05,26,10,41,16.20
2019,05,26,10,42,16.20
2019,05,26,10,43,16.30
2019,05,26,10,44,16.40
2019,05,26,10,45,16.40
2019,05,26,10,46,16.50
2019,05,26,10,47,16.50
2019,05,26,10,48,16.70
2019,05,26,10,49,16.80
2019,05,26,10,50,16.80
2019,05,26,10,51,16.90
2019,05,26,10,52,16.90
2019,05,26,10,53,17.00
2019,05,26,10,54,17.00
2019,05,26,10,55,17.00
2019,05,26,10,56,17.00
2019,05,26,10,57,17.10
2019,05,26,10,58,17.10
2019,05,26,10,59,17.10
2019,05,26,11,00,17.10
2019,05,26,11,01,17.20
2019,05,26,11,02,17.20
2019,05,26,11,03,17.20
2019,05,26,11,04,17.10
2019,05,26,11,05,17.00
2019,05,26,11,06,17.00
2019,05,26,11,07,16.90
2019,05,26,11,08,16.80
2019,05,26,11,09,16.80
2019,05,26,11,10,16.80
2019,05,26,11,11,16.80
2019,05,26,11,12,16.70
2019,05,26,11,13,16.80
2019,05,26,11,14,16.80
2019,05,26,11,15,16.80
2019,05,26,11,16,16.90
2019,05,26,11,17,16.90
2019,05,26,11,18,16.90
2019,05,26,11,19,17.00
2019,05,26,11,20,17.00
2019,05,26,11,21,17.00
2019,05,26,11,22,17.10
2019,05,26,11,23,17.10
2019,05,26,11,24,17.10
2019,05,26,11,25,17.20
2019,05,26,11,26,17.20
2019,05,26,11,27,17.10
2019,05,26,11,28,17.10
2019,05,26,11,29,17.10
2019,05,26,11,30,17.10
2019,05,26,11,31,17.20
2019,05,26,11,32,17.20
2019,05,26,11,33,17.20
2019,05,26,11,34,17.20
2019,05,26,11,35,17.20
2019,05,26,11,36,17.20
2019,05,26,11,37,17.20
2019,05,26,11,38,17.20
2019,05,26,11,39,17.20
2019,05,26,11,40,17.30
2019,05,26,11,41,17.30
2019,05,26,11,42,17.30
2019,05,26,11,43,17.30
2019,05,26,11,44,17.30
2019,05,26,11,45,17.30
2019,05,26,11,46,17.30
2019,05,26,11,47,17.30
2019,05,26,11,48,17.30
2019,05,26,11,49,17.20
2019,05,26,11,50,17.20
2019,05,26,11,51,17.10
2019,05,26,11,52,17.00
2019,05,26,11,53,16.90
2019,05,26,11,54,16.80
2019,05,26,11,55,16.70
2019,05,26,11,56,16.60
2019,05,26,11,57,16.50
2019,05,26,11,58,16.30
2019,05,26,11,59,16.10
2019,05,26,12,00,16.00
2019,05,26,12,01,15.90
2019,05,26,12,02,15.80
2019,05,26,12,03,15.70
2019,05,26,12,04,15.60
2019,05,26,12,05,15.50
2019,05,26,12,06,15.50
2019,05,26,12,07,15.50
2019,05,26,12,08,15.60
2019,05,26,12,09,15.70
2019,05,26,12,10,15.70
2019,05,26,12,11,15.80
2019,05,26,12,12,15.80
2019,05,26,12,13,15.80
2019,05,26,12,14,15.90
2019,05,26,12,15,15.90
2019,05,26,12,16,15.90
2019,05,26,12,17,15.90
2019,05,26,12,18,15.90
2019,05,26,12,19,16.00
2019,05,26,12,20,16.00
2019,05,26,12,21,16.00
2019,05,26,12,22,16.10
2019,05,26,12,23,16.10
2019,05,26,12,24,16.10
2019,05,26,12,25,16.20
2019,05,26,12,26,16.20
2019,05,26,12,27,16.30
2019,05,26,12,28,16.40
2019,05,26,12,29,16.50
2019,05,26,12,30,16.50
2019,05,26,12,31,16.60
2019,05,26,12,32,16.70
2019,05,26,12,33,16.80
2019,05,26,12,34,16.90
2019,05,26,12,35,17.00
2019,05,26,12,36,17.10
2019,05,26,12,37,17.10
2019,05,26,12,38,17.10
2019,05,26,12,39,17.10
2019,05,26,12,40,17.10
2019,05,26,12,41,17.10
2019,05,26,12,42,17.00
2019,05,26,12,43,16.90
2019,05,26,12,44,16.80
2019,05,26,12,45,16.80
2019,05,26,12,46,16.80
2019,05,26,12,47,16.80
2019,05,26,12,48,16.80
2019,05,26,12,49,16.90
2019,05,26,12,50,16.90
2019,05,26,12,51,16.90
2019,05,26,12,52,16.90
2019,05,26,12,53,16.90
2019,05,26,12,54,16.80
2019,05,26,12,55,16.80
2019,05,26,12,56,16.80
2019,05,26,12,57,16.80
2019,05,26,12,58,16.90
2019,05,26,12,59,16.90
2019,05,26,13,00,16.80
2019,05,26,13,01,16.80
2019,05,26,13,02,16.70
2019,05,26,13,03,16.70
2019,05,26,13,04,16.70
2019,05,26,13,05,16.80
2019,05,26,13,06,16.80
2019,05,26,13,07,16.90
2019,05,26,13,08,17.00
2019,05,26,13,09,17.10
2019,05,26,13,10,17.20
2019,05,26,13,11,17.20
2019,05,26,13,12,17.30
2019,05,26,13,13,17.40
2019,05,26,13,14,17.50
2019,05,26,13,15,17.50
2019,05,26,13,16,17.60
2019,05,26,13,17,17.60
2019,05,26,13,18,17.70
2019,05,26,13,19,17.80
2019,05,26,13,20,17.90
2019,05,26,13,21,17.90
2019,05,26,13,22,18.00
2019,05,26,13,23,18.10
2019,05,26,13,24,18.10
2019,05,26,13,25,18.20
2019,05,26,13,26,18.20
2019,05,26,13,27,18.30
2019,05,26,13,28,18.30
2019,05,26,13,29,18.30
2019,05,26,13,30,18.30
2019,05,26,13,31,18.30
2019,05,26,13,32,18.30
2019,05,26,13,33,18.30
2019,05,26,13,34,18.20
2019,05,26,13,35,18.10
2019,05,26,13,36,18.00
2019,05,26,13,37,18.00
2019,05,26,13,38,17.90
2019,05,26,13,39,17.80
2019,05,26,13,40,17.80
2019,05,26,13,41,17.70
2019,05,26,13,42,17.60
2019,05,26,13,43,17.60
2019,05,26,13,44,17.50
2019,05,26,13,45,17.50
2019,05,26,13,46,17.40
2019,05,26,13,47,17.40
2019,05,26,13,48,17.30
2019,05,26,13,49,17.20
2019,05,26,13,50,17.20
2019,05,26,13,51,17.10
2019,05,26,13,52,17.10
2019,05,26,13,53,17.00
2019,05,26,13,54,17.00
2019,05,26,13,55,16.90
2019,05,26,13,56,16.80
2019,05,26,13,57,16.80
2019,05,26,13,58,16.70
2019,05,26,13,59,16.70
2019,05,26,14,00,16.70
2019,05,26,14,01,16.60
2019,05,26,14,02,16.60
2019,05,26,14,03,16.60
2019,05,26,14,04,16.50
2019,05,26,14,05,16.50
2019,05,26,14,06,16.40
2019,05,26,14,07,16.50
2019,05,26,14,08,16.50
2019,05,26,14,09,16.50
2019,05,26,14,10,16.60
2019,05,26,14,11,16.60
2019,05,26,14,12,16.60
2019,05,26,14,13,16.60
2019,05,26,14,14,16.70
2019,05,26,14,15,16.70
2019,05,26,14,16,16.70
2019,05,26,14,17,16.70
2019,05,26,14,18,16.80
2019,05,26,14,19,16.80
2019,05,26,14,20,16.80
2019,05,26,14,21,16.80
2019,05,26,14,22,16.80
2019,05,26,14,23,16.80
2019,05,26,14,24,16.80
2019,05,26,14,25,16.80
2019,05,26,14,26,16.80
2019,05,26,14,27,16.80
2019,05,26,14,28,16.80
2019,05,26,14,29,16.90
2019,05,26,14,30,16.90
2019,05,26,14,31,17.00
2019,05,26,14,32,17.10
2019,05,26,14,33,17.20
2019,05,26,14,34,17.30
2019,05,26,14,35,17.40
2019,05,26,14,36,17.40
2019,05,26,14,37,17.50
2019,05,26,14,38,17.60
2019,05,26,14,39,17.70
2019,05,26,14,40,17.80
2019,05,26,14,41,17.80
2019,05,26,14,42,17.80
2019,05,26,14,43,17.90
2019,05,26,14,44,17.90
2019,05,26,14,45,17.90
2019,05,26,14,46,18.00
2019,05,26,14,47,18.10
2019,05,26,14,48,18.20
2019,05,26,14,49,18.30
2019,05,26,14,50,18.50
2019,05,26,14,51,18.60
2019,05,26,14,52,18.70
2019,05,26,14,53,18.80
2019,05,26,14,54,18.90
2019,05,26,14,55,19.00
2019,05,26,14,56,19.10
2019,05,26,14,57,19.20
2019,05,26,14,58,19.30
2019,05,26,14,59,19.30
2019,05,26,15,00,19.30
2019,05,26,15,01,19.30
2019,05,26,15,02,19.40
2019,05,26,15,03,19.40
2019,05,26,15,04,19.50
2019,05,26,15,05,19.50
2019,05,26,15,06,19.40
2019,05,26,15,07,19.40
2019,05,26,15,08,19.40
2019,05,26,15,09,19.50
2019,05,26,15,10,19.50
2019,05,26,15,11,19.50
2019,05,26,15,12,19.60
2019,05,26,15,13,19.60
2019,05,26,15,14,19.60
2019,05,26,15,15,19.50
2019,05,26,15,16,19.50
2019,05,26,15,17,19.40
2019,05,26,15,18,19.40
2019,05,26,15,19,19.30
2019,05,26,15,20,19.20
2019,05,26,15,21,19.10
2019,05,26,15,22,19.10
2019,05,26,15,23,19.00
2019,05,26,15,24,18.90
2019,05,26,15,25,18.90
2019,05,26,15,26,18.80
2019,05,26,15,27,18.80
2019,05,26,15,28,18.70
2019,05,26,15,29,18.70
2019,05,26,15,30,18.70
2019,05,26,15,31,18.70
2019,05,26,15,32,18.70
2019,05,26,15,33,18.70
2019,05,26,15,34,18.60
2019,05,26,15,35,18.60
2019,05,26,15,36,18.60
2019,05,26,15,37,18.60
2019,05,26,15,38,18.60
2019,05,26,15,39,18.60
2019,05,26,15,40,18.60
2019,05,26,15,41,18.70
2019,05,26,15,42,18.70
2019,05,26,15,43,18.80
2019,05,26,15,44,18.80
2019,05,26,15,45,18.90
2019,05,26,15,46,19.00
2019,05,26,15,47,19.10
2019,05,26,15,48,19.20
2019,05,26,15,49,19.30
2019,05,26,15,50,19.30
2019,05,26,15,51,19.50
2019,05,26,15,52,19.60
2019,05,26,15,53,19.70
2019,05,26,15,54,19.80
2019,05,26,15,55,19.90
2019,05,26,15,56,19.90
2019,05,26,15,57,20.00
2019,05,26,15,58,20.00
2019,05,26,15,59,20.10
2019,05,26,16,00,20.20
2019,05,26,16,01,20.20
2019,05,26,16,02,20.20
2019,05,26,16,03,20.30
2019,05,26,16,04,20.30
2019,05,26,16,05,20.40
2019,05,26,16,06,20.40
2019,05,26,16,07,20.40
2019,05,26,16,08,20.50
2019,05,26,16,09,20.60
2019,05,26,16,10,20.60
2019,05,26,16,11,20.60
2019,05,26,16,12,20.60
2019,05,26,16,13,20.60
2019,05,26,16,14,20.60
2019,05,26,16,15,20.60
2019,05,26,16,16,20.60
2019,05,26,16,17,20.60
2019,05,26,16,18,20.50
2019,05,26,16,19,20.50
2019,05,26,16,20,20.40
2019,05,26,16,21,20.40
2019,05,26,16,22,20.30
2019,05,26,16,23,20.20
2019,05,26,16,24,20.20
2019,05,26,16,25,20.10
2019,05,26,16,26,20.00
2019,05,26,16,27,19.90
2019,05,26,16,28,19.80
2019,05,26,16,29,19.80
2019,05,26,16,30,19.70
2019,05,26,16,31,19.60
2019,05,26,16,32,19.60
2019,05,26,16,33,19.50
2019,05,26,16,34,19.50
2019,05,26,16,35,19.40
2019,05,26,16,36,19.30
2019,05,26,16,37,19.30
2019,05,26,16,38,19.20
2019,05,26,16,39,19.20
2019,05,26,16,40,19.20
2019,05,26,16,41,19.20
2019,05,26,16,42,19.20
2019,05,26,16,43,19.20
2019,05,26,16,44,19.30
2019,05,26,16,45,19.20
2019,05,26,16,46,19.20
2019,05,26,16,47,19.20
2019,05,26,16,48,19.20
2019,05,26,16,49,19.10
2019,05,26,16,50,19.10
2019,05,26,16,51,19.00
2019,05,26,16,52,18.90
2019,05,26,16,53,18.80
2019,05,26,16,54,18.80
2019,05,26,16,55,18.70
2019,05,26,16,56,18.70
2019,05,26,16,57,18.70
2019,05,26,16,58,18.70
2019,05,26,16,59,18.70
2019,05,26,17,00,18.70
2019,05,26,17,01,18.70
2019,05,26,17,02,18.70
2019,05,26,17,03,18.70
2019,05,26,17,04,18.80
2019,05,26,17,05,18.80
2019,05,26,17,06,18.90
2019,05,26,17,07,18.90
2019,05,26,17,08,18.90
2019,05,26,17,09,18.90
2019,05,26,17,10,18.90
2019,05,26,17,11,19.00
2019,05,26,17,12,19.00
2019,05,26,17,13,19.00
2019,05,26,17,14,19.10
2019,05,26,17,15,19.10
2019,05,26,17,16,19.10
2019,05,26,17,17,19.20
2019,05,26,17,18,19.20
2019,05,26,17,19,19.20
2019,05,26,17,20,19.20
2019,05,26,17,21,19.20
2019,05,26,17,22,19.20
2019,05,26,17,23,19.20
2019,05,26,17,24,19.20
2019,05,26,17,25,19.20
2019,05,26,17,26,19.10
2019,05,26,17,27,19.10
2019,05,26,17,28,19.10
2019,05,26,17,29,19.10
2019,05,26,17,30,19.10
2019,05,26,17,31,19.10
2019,05,26,17,32,19.10
2019,05,26,17,33,19.10
2019,05,26,17,34,19.10
2019,05,26,17,35,19.10
2019,05,26,17,36,19.10
2019,05,26,17,37,19.10
2019,05,26,17,38,19.10
2019,05,26,17,39,19.10